SURCAL 159

导读 | 豆包AI

SURCAL 159是美国(US)于1967年5月31日08:00:00发射的一颗监视校准卫星,隶属于SURCAL(空间监视系统校准)卫星系列,该系列卫星核心任务为开展空间监视系统校准工作,服务于美国空间监视相关技术验证与系统调试,是早期美国空间监测网络建设过程中的技术试验类卫星,在航天监视技术发展早期发挥了特定作用。

基本信息
目录编号:
2872
目录名称:
SURCAL 159
国际标识:
1967-053F
轨道中心:
EARTH
卫星名称:
SURCAL 159
卫星全名:
--
卫星状态:
在轨 (已飞行21473 天)
发射日期:
1967-05-31 UTC
国别 :
美国 (US)
星等 :
--
轨道信息
数据来源 国际轨道数据
星历时间: 2026-03-15T01:58:30+0800
16小时前
查看轨道信息
半长轴: 7273.395km
偏心率: 0.0009317
轨道倾角: 69.974°
近地点辐角 246.667°
升交点赤经 204.181°
平近点角 113.346°
近地点: 888.481km
远地点: 902.035km
周期: 102.888分钟
每日圈数: 13.995778
详细信息
使用方式:
暂无
2D轨道图
3D轨道图
轨道高度分析图
轨道倾角分析图
轨道综合分析图
查看轨道综合分析图